Satellite-Ground Cal/Val Site Overpasses Predictions

Prediction of Satellite NPP Overpassing Cal/Val Site: Antarctic Dome C

Ground Cal/Val Site Location: Latitude: -75.10, Longitude: 123.35; Satellite-Ground Site NADIR distance within 100 km.

Table of predicted overpasses for the next 14.0 days since TLE Epoch: 9/15/2017
Interval Starting Time Ending Time Minimum Distance Time Minimum Distance (km)
1 09/16/2017 14:42:50 09/16/2017 14:43:15 09/16/2017 14:43:03 49.74
2 09/17/2017 07:44:32 09/17/2017 07:44:53 09/17/2017 07:44:42 69.78
3 09/18/2017 07:25:39 09/18/2017 07:26:06 09/18/2017 07:25:53 38.06
4 09/20/2017 15:08:08 09/20/2017 15:08:14 09/20/2017 15:08:11 97.33
5 09/21/2017 14:49:08 09/21/2017 14:49:37 09/21/2017 14:49:22 14.22
6 09/23/2017 07:31:58 09/23/2017 07:32:28 09/23/2017 07:32:13 1.34
7 09/26/2017 14:55:27 09/26/2017 14:55:56 09/26/2017 14:55:41 22.73
8 09/27/2017 14:36:45 09/27/2017 14:37:01 09/27/2017 14:36:53 84.27
9 09/28/2017 07:38:18 09/28/2017 07:38:45 09/28/2017 07:38:32 35.02


NCC Satellite Cal/Val Overpasses Prediction Service
